Location: Demmingen
(48.6757°N, 10.4375°E)
Time: 10:15:06
(UTC+00:00)

CZ-2C R/B - Pass Details

Date: 23 May 2024
Orbit: 703 x 904 km, 98.2° (Epoch: 15 June)

Event Time Altitude Azimuth Distance (km) Brightness Sun altitude
Rises 01:35:09 0° 14° (NNE) 3,538 7.9 -14.0°
Reaches altitude 10° 01:37:35 10° 16° (NNE) 2,597 7.0 -13.7°
Maximum altitude 01:43:26 80° 104° (ESE) 918 3.4 -13.2°
Enters shadow 01:48:27 14° 191° (S) 2,271 4.9 -12.7°
